| time (UTC) | temp F | wind direction | speed MPH | gust MPH | rain 1hr in | rain 24hr in | rain mn in | humidity % | barometer mb |
| 20260502184509 | 57 | 227 | 3.0 | 6.0 | 0.00 | 0.32 | 0.32 | 61 | 1009.9 |
| 20260502184005 | 57 | 251 | 0.0 | 3.0 | 0.00 | 0.32 | 0.32 | 61 | 1009.9 |
| 20260502183503 | 57 | 306 | 0.0 | 4.0 | 0.00 | 0.32 | 0.32 | 63 | 1009.9 |
| 20260502182507 | 57 | 215 | 1.0 | 4.0 | 0.00 | 0.32 | 0.32 | 67 | 1010.0 |
| 20260502182011 | 56 | 345 | 1.0 | 4.0 | 0.00 | 0.32 | 0.32 | 67 | 1010.0 |
| 20260502181516 | 55 | 240 | 1.0 | 2.0 | 0.00 | 0.32 | 0.32 | 67 | 1010.1 |
| 20260502181008 | 55 | 4 | 0.0 | 3.0 | 0.00 | 0.32 | 0.32 | 71 | 1010.2 |
| 20260502180508 | 54 | 320 | 1.0 | 4.0 | 0.00 | 0.32 | 0.32 | 81 | 1010.3 |
| 20260502170502 | 52 | 137 | 4.0 | 7.0 | 0.03 | 0.32 | 0.32 | 85 | 1010.7 |
| 20260502164005 | 50 | 200 | 3.0 | 7.0 | 0.03 | 0.32 | 0.32 | 86 | 1010.9 |
| 20260502163504 | 50 | 208 | 4.0 | 7.0 | 0.03 | 0.32 | 0.32 | 87 | 1011.1 |
| 20260502163012 | 50 | 213 | 1.0 | 5.0 | 0.01 | 0.30 | 0.30 | 86 | 1011.2 |
| 20260502162506 | 50 | 197 | 3.0 | 8.0 | 0.00 | 0.29 | 0.29 | 84 | 1011.2 |
| 20260502162006 | 50 | 153 | 4.0 | 8.0 | 0.00 | 0.29 | 0.29 | 83 | 1011.1 |
| 20260502161511 | 51 | 206 | 4.0 | 8.0 | 0.00 | 0.29 | 0.29 | 83 | 1011.0 |
| 20260502161004 | 51 | 151 | 2.0 | 6.0 | 0.00 | 0.29 | 0.29 | 83 | 1010.9 |
| 20260502160507 | 51 | 185 | 3.0 | 11.0 | 0.00 | 0.29 | 0.29 | 84 | 1010.9 |
| 20260502152005 | 52 | 177 | 3.0 | 6.0 | 0.00 | 0.29 | 0.29 | 80 | 1011.1 |
| 20260502151508 | 52 | 198 | 0.0 | 7.0 | 0.00 | 0.29 | 0.29 | 81 | 1011.1 |
| 20260502151005 | 52 | 244 | 1.0 | 7.0 | 0.00 | 0.29 | 0.29 | 80 | 1011.2 |
| 20260502150505 | 52 | 218 | 2.0 | 6.0 | 0.00 | 0.29 | 0.29 | 82 | 1011.3 |
| 20260502130505 | 48 | 201 | 2.0 | 4.0 | 0.00 | 0.29 | 0.29 | 91 | 1011.6 |
| 20260502123507 | 47 | 252 | 2.0 | 4.0 | 0.00 | 0.29 | 0.29 | 94 | 1011.8 |
| 20260502123017 | 47 | 215 | 2.0 | 3.0 | 0.00 | 0.29 | 0.29 | 94 | 1011.8 |
| 20260502122509 | 47 | 186 | 1.0 | 4.0 | 0.00 | 0.29 | 0.29 | 95 | 1011.8 |
| 20260502122009 | 47 | 232 | 1.0 | 4.0 | 0.01 | 0.29 | 0.29 | 96 | 1011.9 |
| 20260502121520 | 46 | 188 | 0.0 | 0.0 | 0.01 | 0.29 | 0.29 | 96 | 1011.8 |
| 20260502121010 | 46 | 149 | 0.0 | 0.0 | 0.01 | 0.29 | 0.29 | 96 | 1011.9 |
| 20260502120503 | 45 | 207 | 0.0 | 1.0 | 0.01 | 0.29 | 0.29 | 96 | 1011.9 |
| 20260502115504 | 45 | 193 | 0.0 | 1.0 | 0.02 | 0.29 | 0.29 | 96 | 1012.1 |
| 20260502115004 | 45 | 195 | 0.0 | 1.0 | 0.03 | 0.29 | 0.29 | 96 | 1012.1 |
| 20260502114516 | 45 | 188 | 0.0 | 1.0 | 0.03 | 0.29 | 0.29 | 96 | 1012.1 |
| 20260502114005 | 45 | 168 | 0.0 | 0.0 | 0.04 | 0.29 | 0.29 | 96 | 1012.0 |
| 20260502113507 | 45 | 141 | 0.0 | 0.0 | 0.04 | 0.29 | 0.29 | 96 | 1012.0 |
| 20260502113014 | 45 | 7 | 0.0 | 0.0 | 0.04 | 0.29 | 0.29 | 96 | 1011.9 |
| 20260502112507 | 45 | 7 | 0.0 | 0.0 | 0.04 | 0.29 | 0.29 | 96 | 1011.9 |
| 20260502112008 | 44 | 8 | 0.0 | 0.0 | 0.04 | 0.28 | 0.28 | 96 | 1011.9 |
| 20260502111518 | 44 | 7 | 0.0 | 0.0 | 0.04 | 0.28 | 0.28 | 96 | 1011.8 |
| 20260502111009 | 44 | 7 | 0.0 | 0.0 | 0.04 | 0.28 | 0.28 | 96 | 1011.7 |
| 20260502110510 | 44 | 7 | 0.0 | 0.0 | 0.04 | 0.28 | 0.28 | 96 | 1011.7 |
| 20260502110024 | 44 | 7 | 0.0 | 0.0 | 0.03 | 0.27 | 0.27 | 96 | 1011.7 |
| 20260502105512 | 44 | 7 | 0.0 | 0.0 | 0.03 | 0.27 | 0.27 | 96 | 1011.7 |
| 20260502105008 | 44 | 7 | 0.0 | 0.0 | 0.02 | 0.26 | 0.26 | 96 | 1011.7 |
| 20260502104506 | 44 | 11 | 0.0 | 0.0 | 0.02 | 0.26 | 0.26 | 96 | 1011.7 |
| 20260502104003 | 44 | 11 | 0.0 | 0.0 | 0.01 | 0.25 | 0.25 | 95 | 1011.6 |
| 20260502103512 | 44 | 38 | 0.0 | 0.0 | 0.01 | 0.25 | 0.25 | 95 | 1011.5 |
| 20260502103013 | 44 | 39 | 0.0 | 0.0 | 0.01 | 0.25 | 0.25 | 95 | 1011.4 |
| 20260502102506 | 44 | 39 | 0.0 | 0.0 | 0.02 | 0.25 | 0.25 | 95 | 1011.3 |
| 20260502102008 | 44 | 39 | 0.0 | 0.0 | 0.01 | 0.24 | 0.24 | 95 | 1011.1 |
| 20260502101010 | 44 | 39 | 0.0 | 0.0 | 0.03 | 0.24 | 0.24 | 95 | 1011.1 |
| 20260502071505 | 44 | 72 | 0.0 | 0.0 | 0.03 | 0.04 | 0.04 | 91 | 1011.8 |
| 20260502071004 | 44 | 72 | 0.0 | 0.0 | 0.01 | 0.02 | 0.02 | 91 | 1011.8 |
| 20260502070504 | 44 | 72 | 0.0 | 0.0 | 0.01 | 0.02 | 0.02 | 91 | 1011.7 |
| 20260502070008 | 44 | 72 | 0.0 | 0.0 | 0.01 | 0.02 | 0.02 | 91 | 1011.5 |
| 20260502065504 | 44 | 72 | 0.0 | 0.0 | 0.01 | 0.02 | 0.02 | 90 | 1011.3 |
| 20260502065003 | 44 | 84 | 0.0 | 1.0 | 0.02 | 0.02 | 0.02 | 90 | 1011.5 |
| 20260502064503 | 44 | 84 | 0.0 | 1.0 | 0.02 | 0.02 | 0.02 | 90 | 1011.4 |
| 20260502064003 | 44 | 84 | 0.0 | 2.0 | 0.02 | 0.02 | 0.02 | 90 | 1011.5 |
| 20260502063503 | 44 | 63 | 0.0 | 2.0 | 0.02 | 0.02 | 0.02 | 90 | 1011.5 |
| 20260502063004 | 44 | 56 | 0.0 | 1.0 | 0.02 | 0.02 | 0.02 | 90 | 1011.7 |
| 20260502062503 | 44 | 309 | 0.0 | 1.0 | 0.01 | 0.01 | 0.01 | 91 | 1011.7 |
| 20260502062006 | 44 | 307 | 0.0 | 1.0 | 0.01 | 0.01 | 0.01 | 91 | 1011.7 |
| 20260502061506 | 44 | 321 | 0.0 | 1.0 | 0.01 | 0.01 | 0.01 | 91 | 1011.6 |
| 20260502061004 | 44 | 323 | 0.0 | 1.0 | 0.01 | 0.01 | 0.01 | 91 | 1011.5 |
| 20260502060504 | 45 | 321 | 0.0 | 1.0 | 0.01 | 0.01 | 0.01 | 91 | 1011.7 |
| 20260502060009 | 44 | 219 | 0.0 | 1.0 | 0.01 | 0.01 | 0.01 | 90 | 1011.8 |
| 20260502055505 | 45 | 219 | 0.0 | 1.0 | 0.01 | 0.01 | 0.01 | 89 | 1011.7 |
| 20260502055006 | 45 | 219 | 0.0 | 0.0 | 0.00 | 0.00 | 0.00 | 88 | 1011.9 |
| 20260502054509 | 45 | 201 | 0.0 | 2.0 | 0.00 | 0.00 | 0.00 | 88 | 1011.9 |
| 20260502054006 | 45 | 201 | 0.0 | 2.0 | 0.00 | 0.00 | 0.00 | 88 | 1012.0 |
| 20260502053007 | 45 | 338 | 0.0 | 0.0 | 0.00 | 0.00 | 0.00 | 87 | 1012.0 |
| 20260502052505 | 45 | 338 | 0.0 | 1.0 | 0.00 | 0.00 | 0.00 | 87 | 1012.0 |
| 20260502052005 | 45 | 338 | 0.0 | 1.0 | 0.00 | 0.00 | 0.00 | 86 | 1011.9 |
| 20260502051003 | 45 | 269 | 0.0 | 1.0 | 0.00 | 0.00 | 0.00 | 84 | 1011.8 |
| 20260502045504 | 45 | 231 | 0.0 | 0.0 | 0.00 | 0.00 | 0.00 | 81 | 1011.6 |
| 20260502045004 | 46 | 18 | 0.0 | 0.0 | 0.00 | 0.00 | 0.00 | 80 | 1011.6 |
| 20260502044002 | 46 | 356 | 0.0 | 0.0 | 0.00 | 0.00 | 0.00 | 76 | 1011.6 |
| 20260502043502 | 46 | 356 | 0.0 | 0.0 | 0.00 | 0.00 | 0.00 | 75 | 1011.5 |
| 20260502043008 | 46 | 356 | 0.0 | 0.0 | 0.00 | 0.00 | 0.00 | 76 | 1011.5 |
| 20260502042503 | 46 | 356 | 0.0 | 0.0 | 0.00 | 0.00 | 0.00 | 77 | 1011.5 |
| 20260502042005 | 46 | 356 | 0.0 | 0.0 | 0.00 | 0.00 | 0.00 | 77 | 1011.4 |
| 20260502041508 | 46 | 356 | 0.0 | 0.0 | 0.00 | 0.00 | 0.00 | 76 | 1011.3 |
| 20260502041004 | 46 | 356 | 0.0 | 0.0 | 0.00 | 0.00 | 0.00 | 76 | 1011.3 |
| 20260502040504 | 46 | 356 | 0.0 | 0.0 | 0.00 | 0.00 | 0.00 | 75 | 1011.3 |
| 20260502040006 | 46 | 356 | 0.0 | 0.0 | 0.00 | 0.00 | 0.00 | 75 | 1011.3 |
| 20260502035003 | 46 | 356 | 0.0 | 0.0 | 0.00 | 0.00 | 0.00 | 77 | 1011.3 |
| 20260502034510 | 46 | 356 | 0.0 | 0.0 | 0.00 | 0.00 | 0.00 | 76 | 1011.3 |
| 20260502034005 | 46 | 356 | 0.0 | 0.0 | 0.00 | 0.00 | 0.00 | 76 | 1011.3 |
| 20260502033504 | 46 | 356 | 0.0 | 0.0 | 0.00 | 0.00 | 0.00 | 74 | 1011.3 |
| 20260502032502 | 46 | 356 | 0.0 | 0.0 | 0.00 | 0.00 | 0.00 | 75 | 1011.3 |
| 20260502032004 | 46 | 356 | 0.0 | 0.0 | 0.00 | 0.00 | 0.00 | 73 | 1011.2 |
| 20260502031512 | 46 | 356 | 0.0 | 0.0 | 0.00 | 0.00 | 0.00 | 73 | 1011.2 |
| 20260502031005 | 46 | 356 | 0.0 | 0.0 | 0.00 | 0.00 | 0.00 | 75 | 1011.2 |
| 20260502030507 | 46 | 356 | 0.0 | 0.0 | 0.00 | 0.00 | 0.00 | 76 | 1011.2 |
| 20260502030010 | 46 | 356 | 0.0 | 0.0 | 0.00 | 0.00 | 0.00 | 73 | 1011.3 |
| 20260502025504 | 46 | 356 | 0.0 | 0.0 | 0.00 | 0.00 | 0.00 | 72 | 1011.3 |
| 20260502025003 | 46 | 356 | 0.0 | 0.0 | 0.00 | 0.00 | 0.00 | 73 | 1011.3 |
| 20260502024515 | 46 | 356 | 0.0 | 0.0 | 0.00 | 0.00 | 0.00 | 71 | 1011.2 |
| 20260502024003 | 46 | 356 | 0.0 | 0.0 | 0.00 | 0.00 | 0.00 | 73 | 1011.1 |
| 20260502023504 | 47 | 356 | 0.0 | 0.0 | 0.00 | 0.00 | 0.00 | 72 | 1011.1 |
| 20260502023012 | 47 | 356 | 0.0 | 0.0 | 0.00 | 0.00 | 0.00 | 73 | 1011.0 |
| 20260502022504 | 47 | 356 | 0.0 | 0.0 | 0.00 | 0.00 | 0.00 | 73 | 1011.0 |
| 20260502022007 | 47 | 356 | 0.0 | 0.0 | 0.00 | 0.00 | 0.00 | 73 | 1011.0 |
| 20260502021512 | 47 | 356 | 0.0 | 0.0 | 0.00 | 0.00 | 0.00 | 72 | 1011.0 |
| 20260502021004 | 47 | 356 | 0.0 | 0.0 | 0.00 | 0.00 | 0.00 | 72 | 1011.1 |
| 20260502020504 | 48 | 356 | 0.0 | 0.0 | 0.00 | 0.00 | 0.00 | 72 | 1011.2 |
| 20260502020016 | 48 | 356 | 0.0 | 0.0 | 0.00 | 0.00 | 0.00 | 70 | 1011.1 |
| 20260502015505 | 48 | 356 | 0.0 | 0.0 | 0.00 | 0.00 | 0.00 | 70 | 1011.1 |
| 20260502015005 | 48 | 356 | 0.0 | 0.0 | 0.00 | 0.00 | 0.00 | 69 | 1011.1 |
| 20260502014516 | 48 | 356 | 0.0 | 0.0 | 0.00 | 0.00 | 0.00 | 65 | 1011.2 |
| 20260502014003 | 48 | 356 | 0.0 | 0.0 | 0.00 | 0.00 | 0.00 | 69 | 1011.1 |
| 20260502013507 | 48 | 356 | 0.0 | 0.0 | 0.00 | 0.00 | 0.00 | 66 | 1011.1 |
| 20260502013016 | 49 | 356 | 0.0 | 0.0 | 0.00 | 0.00 | 0.00 | 67 | 1011.0 |
| 20260502012504 | 49 | 356 | 0.0 | 0.0 | 0.00 | 0.00 | 0.00 | 67 | 1010.9 |
| 20260502012004 | 50 | 356 | 0.0 | 0.0 | 0.00 | 0.00 | 0.00 | 67 | 1010.9 |
| 20260502011007 | 50 | 356 | 0.0 | 0.0 | 0.00 | 0.00 | 0.00 | 63 | 1010.9 |
| 20260502010504 | 50 | 356 | 0.0 | 0.0 | 0.00 | 0.00 | 0.00 | 64 | 1010.9 |
| 20260502005508 | 50 | 356 | 0.0 | 0.0 | 0.00 | 0.00 | 0.00 | 68 | 1011.0 |
| 20260502005008 | 50 | 356 | 0.0 | 0.0 | 0.00 | 0.00 | 0.00 | 67 | 1010.9 |
| 20260502004526 | 51 | 340 | 0.0 | 0.0 | 0.00 | 0.00 | 0.00 | 66 | 1010.8 |
| 20260502004005 | 51 | 340 | 0.0 | 0.0 | 0.00 | 0.00 | 0.00 | 62 | 1010.8 |
| 20260502003504 | 51 | 342 | 0.0 | 0.0 | 0.00 | 0.00 | 0.00 | 60 | 1010.6 |
| 20260502003022 | 51 | 314 | 0.0 | 0.0 | 0.00 | 0.00 | 0.00 | 60 | 1010.6 |
| 20260502002507 | 51 | 304 | 0.0 | 1.0 | 0.00 | 0.00 | 0.00 | 60 | 1010.6 |
| 20260502002008 | 51 | 285 | 0.0 | 1.0 | 0.00 | 0.00 | 0.00 | 58 | 1010.5 |
| 20260502001518 | 50 | 257 | 0.0 | 1.0 | 0.00 | 0.00 | 0.00 | 55 | 1010.4 |
| 20260502000504 | 51 | 255 | 0.0 | 1.0 | 0.00 | 0.00 | 0.00 | 57 | 1010.2 |
| 20260502000019 | 51 | 254 | 0.0 | 2.0 | 0.00 | 0.00 | 0.00 | 58 | 1010.2 |
| 20260501235506 | 52 | 317 | 0.0 | 2.0 | 0.00 | 0.00 | 0.00 | 57 | 1010.0 |
| 20260501235007 | 52 | 248 | 0.0 | 1.0 | 0.00 | 0.01 | 0.00 | 57 | 1010.1 |
| 20260501234013 | 54 | 248 | 0.0 | 2.0 | 0.00 | 0.01 | 0.00 | 52 | 1009.9 |
| 20260501233507 | 55 | 251 | 0.0 | 4.0 | 0.00 | 0.01 | 0.00 | 45 | 1009.8 |
| 20260501233018 | 56 | 276 | 0.0 | 4.0 | 0.00 | 0.01 | 0.00 | 43 | 1009.8 |
| 20260501232506 | 57 | 333 | 0.0 | 6.0 | 0.00 | 0.01 | 0.00 | 38 | 1009.7 |
| 20260501232008 | 57 | 333 | 0.0 | 6.0 | 0.00 | 0.01 | 0.00 | 37 | 1009.6 |
| 20260501231004 | 58 | 315 | 0.0 | 6.0 | 0.00 | 0.01 | 0.00 | 36 | 1009.5 |
| 20260501230505 | 58 | 359 | 2.0 | 6.0 | 0.00 | 0.01 | 0.00 | 36 | 1009.5 |
| 20260501225508 | 58 | 297 | 1.0 | 4.0 | 0.00 | 0.01 | 0.00 | 36 | 1009.4 |
| 20260501225011 | 59 | 294 | 1.0 | 4.0 | 0.00 | 0.01 | 0.00 | 37 | 1009.4 |
| 20260501224517 | 59 | 285 | 0.0 | 5.0 | 0.00 | 0.01 | 0.00 | 37 | 1009.3 |
| 20260501224011 | 59 | 249 | 0.0 | 6.0 | 0.00 | 0.01 | 0.00 | 35 | 1009.1 |
| 20260501223505 | 59 | 271 | 2.0 | 6.0 | 0.00 | 0.01 | 0.00 | 35 | 1009.1 |
| 20260501223003 | 59 | 240 | 1.0 | 6.0 | 0.00 | 0.01 | 0.00 | 36 | 1009.0 |
| 20260501222504 | 59 | 293 | 1.0 | 3.0 | 0.00 | 0.01 | 0.00 | 37 | 1009.0 |
| 20260501222003 | 59 | 290 | 1.0 | 8.0 | 0.00 | 0.01 | 0.00 | 38 | 1009.0 |
| 20260501221506 | 60 | 290 | 2.0 | 8.0 | 0.00 | 0.01 | 0.00 | 39 | 1009.0 |
| 20260501221004 | 60 | 264 | 1.0 | 4.0 | 0.00 | 0.01 | 0.00 | 37 | 1009.0 |
| 20260501220504 | 60 | 323 | 0.0 | 9.0 | 0.00 | 0.01 | 0.00 | 37 | 1009.1 |
| 20260501220010 | 60 | 8 | 2.0 | 9.0 | 0.00 | 0.01 | 0.00 | 38 | 1009.1 |
| 20260501215504 | 60 | 335 | 2.0 | 6.0 | 0.00 | 0.01 | 0.00 | 36 | 1009.0 |
| 20260501215005 | 61 | 269 | 2.0 | 6.0 | 0.00 | 0.01 | 0.00 | 36 | 1009.1 |
| 20260501214513 | 61 | 254 | 0.0 | 6.0 | 0.00 | 0.01 | 0.00 | 35 | 1009.0 |
| 20260501214005 | 61 | 310 | 2.0 | 8.0 | 0.00 | 0.01 | 0.00 | 36 | 1009.0 |
| 20260501213507 | 61 | 290 | 3.0 | 8.0 | 0.00 | 0.01 | 0.00 | 36 | 1009.1 |
| 20260501213017 | 61 | 344 | 4.0 | 8.0 | 0.00 | 0.04 | 0.00 | 37 | 1009.0 |
| 20260501212507 | 60 | 12 | 2.0 | 7.0 | 0.00 | 0.10 | 0.00 | 39 | 1009.0 |
| 20260501212009 | 60 | 356 | 4.0 | 8.0 | 0.00 | 0.13 | 0.00 | 37 | 1009.0 |
| 20260501211505 | 60 | 338 | 3.0 | 11.0 | 0.00 | 0.13 | 0.00 | 40 | 1009.0 |
| 20260501211003 | 60 | 350 | 1.0 | 11.0 | 0.00 | 0.13 | 0.00 | 38 | 1009.0 |
| 20260501210504 | 61 | 329 | 6.0 | 10.0 | 0.00 | 0.13 | 0.00 | 37 | 1008.9 |
| 20260501210008 | 61 | 350 | 3.0 | 8.0 | 0.00 | 0.13 | 0.00 | 38 | 1008.9 |
| 20260501205504 | 61 | 325 | 1.0 | 4.0 | 0.00 | 0.13 | 0.00 | 38 | 1009.0 |
| 20260501205004 | 60 | 312 | 2.0 | 5.0 | 0.00 | 0.13 | 0.00 | 41 | 1008.9 |
| 20260501204529 | 60 | 1 | 1.0 | 5.0 | 0.00 | 0.13 | 0.00 | 39 | 1008.9 |
| 20260501204005 | 60 | 271 | 2.0 | 5.0 | 0.00 | 0.13 | 0.00 | 37 | 1008.9 |
| 20260501203508 | 60 | 241 | 1.0 | 5.0 | 0.00 | 0.13 | 0.00 | 38 | 1008.8 |
| 20260501203015 | 61 | 292 | 2.0 | 5.0 | 0.00 | 0.13 | 0.00 | 38 | 1009.0 |
| 20260501202506 | 62 | 262 | 2.0 | 9.0 | 0.00 | 0.13 | 0.00 | 37 | 1009.0 |
| 20260501202013 | 61 | 251 | 2.0 | 9.0 | 0.00 | 0.13 | 0.00 | 36 | 1008.9 |
| 20260501201518 | 61 | 282 | 3.0 | 9.0 | 0.00 | 0.13 | 0.00 | 37 | 1008.9 |
| 20260501201006 | 60 | 342 | 4.0 | 8.0 | 0.00 | 0.14 | 0.00 | 38 | 1008.8 |
| 20260501200508 | 61 | 294 | 2.0 | 8.0 | 0.00 | 0.14 | 0.00 | 37 | 1008.8 |
| 20260501200005 | 60 | 291 | 2.0 | 6.0 | 0.00 | 0.15 | 0.00 | 39 | 1008.8 |
| 20260501195505 | 59 | 63 | 3.0 | 6.0 | 0.00 | 0.15 | 0.00 | 38 | 1008.8 |
| 20260501195005 | 58 | 308 | 2.0 | 9.0 | 0.00 | 0.15 | 0.00 | 39 | 1008.9 |
| 20260501194511 | 59 | 339 | 3.0 | 9.0 | 0.00 | 0.15 | 0.00 | 37 | 1008.9 |
| 20260501194003 | 59 | 12 | 2.0 | 7.0 | 0.00 | 0.15 | 0.00 | 38 | 1008.9 |
| 20260501193507 | 59 | 10 | 2.0 | 9.0 | 0.00 | 0.15 | 0.00 | 39 | 1009.0 |
| 20260501193013 | 60 | 242 | 2.0 | 9.0 | 0.00 | 0.15 | 0.00 | 38 | 1009.1 |
| 20260501192508 | 60 | 247 | 2.0 | 6.0 | 0.00 | 0.15 | 0.00 | 40 | 1009.0 |
| 20260501192007 | 60 | 11 | 2.0 | 6.0 | 0.00 | 0.15 | 0.00 | 39 | 1009.0 |
| 20260501191523 | 58 | 1 | 2.0 | 8.0 | 0.00 | 0.15 | 0.00 | 40 | 1009.2 |
| 20260501191008 | 58 | 295 | 2.0 | 10.0 | 0.00 | 0.15 | 0.00 | 38 | 1009.3 |
| 20260501190510 | 58 | 272 | 2.0 | 10.0 | 0.00 | 0.15 | 0.00 | 38 | 1009.4 |
| 20260501190022 | 59 | 251 | 1.0 | 11.0 | 0.00 | 0.15 | 0.00 | 38 | 1009.5 |
| 20260501185507 | 59 | 341 | 7.0 | 11.0 | 0.00 | 0.15 | 0.00 | 40 | 1009.5 |
| 20260501185007 | 59 | 338 | 3.0 | 8.0 | 0.00 | 0.15 | 0.00 | 41 | 1009.5 |
| 20260501184540 | 59 | 345 | 2.0 | 10.0 | 0.00 | 0.15 | 0.00 | 41 | 1009.6 |